Weather History for Appleton, MN

Change the Weather History Date:

Sunday, February 16, 2014

  Actual Average Record
Temperature  
Mean Temperature 10 °F -  
Max Temperature 21 °F 25 °F 44 °F (2011)
Min Temperature 0 °F 9 °F -9 °F (1997)
Degree Days  
Heating Degree Days 56    
Moisture  
Dew Point 6 °F    
Average Humidity 79    
Maximum Humidity 86    
Minimum Humidity 68    
Precipitation  
Precipitation 0.00 in - - ()
Sea Level Pressure  
Sea Level Pressure 30.03 in    
Wind  
Wind Speed 12 mph (ESE)    
Max Wind Speed 25 mph    
Max Gust Speed 33 mph    
Visibility 9 miles    
Events Snow    
Averages and records for this station are not official NWS values.
T = Trace of Precipitation, MM = Missing Value Source: NWS Daily Summary

Daily Weather History Graph

Daily Weather History Graph

Search for Another Location

Airport:

Trip Planner

Search our weather history database for the weather conditions in past years. The results will help you decide how hot, cold, wet, or windy it might be!

Date:

Astronomy

Feb. 16, 2014 Rise Set
Actual Time 7:23 AM CST 5:53 PM CST
Civil Twilight 6:53 AM CST 6:23 PM CST
Nautical Twilight 6:19 AM CST 6:57 PM CST
Astronomical Twilight 5:44 AM CST 7:32 PM CST
Moon 7:58 PM CST (2/16) 7:47 AM CST (2/16)
Length of Visible Light 11h 29m
Length of Day
10h 29m
Full, 97% of the Moon is Illuminated
Feb 16
Full
Feb 22
Last Quarter
Mar 1
New
Mar 8
First Quarter
Mar 16
Full

Hourly Weather History & Observations

Time (CST) Temp. Windchill Dew Point Humidity Pressure Visibility Wind Dir Wind Speed Gust Speed Precip Events Conditions
12:13 AM 5.0 °F -13.0 °F -0.4 °F 78% 30.10 in 10.0 mi NNW 15.0 mph - N/A Snow Light Snow
12:33 AM 5.0 °F -13.0 °F -0.4 °F 78% 30.11 in 10.0 mi NNW 15.0 mph - N/A   Overcast
12:53 AM 5.0 °F -11.6 °F -0.4 °F 78% 30.13 in 10.0 mi NW 12.7 mph - N/A Snow Light Snow
1:13 AM 3.2 °F -13.9 °F -0.4 °F 85% 30.13 in 10.0 mi NNW 12.7 mph - N/A Snow Light Snow
1:33 AM 3.2 °F -12.2 °F -0.4 °F 85% 30.15 in 10.0 mi NW 10.4 mph - N/A Snow Light Snow
1:53 AM 5.0 °F -8.1 °F -0.4 °F 78% 30.15 in 7.0 mi NW 8.1 mph - N/A Snow Light Snow
2:13 AM 5.0 °F -11.6 °F -0.4 °F 78% 30.15 in 10.0 mi NNW 12.7 mph - N/A Snow Light Snow
2:34 AM 5.0 °F -11.6 °F -0.4 °F 78% 30.16 in 10.0 mi NW 12.7 mph - N/A Snow Light Snow
2:53 AM 3.2 °F -12.2 °F -0.4 °F 85% 30.16 in 7.0 mi NW 10.4 mph - N/A Snow Light Snow
3:13 AM 3.2 °F -4.2 °F -0.4 °F 85% 30.15 in 7.0 mi NNW 3.5 mph - N/A Snow Light Snow
3:33 AM 3.2 °F -11.3 °F -0.4 °F 85% 30.15 in 10.0 mi North 9.2 mph - N/A Snow Light Snow
3:53 AM 3.2 °F -9.1 °F -0.4 °F 85% 30.15 in 10.0 mi North 6.9 mph - N/A Snow Light Snow
4:14 AM 3.2 °F -6.2 °F -0.4 °F 85% 30.15 in 10.0 mi NNW 4.6 mph - N/A Snow Light Snow
4:33 AM 3.2 °F -9.1 °F -0.4 °F 85% 30.14 in 10.0 mi NNW 6.9 mph - N/A   Overcast
4:53 AM 3.2 °F -4.2 °F -0.4 °F 85% 30.15 in 10.0 mi NW 3.5 mph - N/A Snow Light Snow
5:13 AM 3.2 °F -6.2 °F -0.4 °F 85% 30.16 in 10.0 mi NW 4.6 mph - N/A Snow Light Snow
5:33 AM 3.2 °F -6.2 °F -0.4 °F 85% 30.15 in 7.0 mi North 4.6 mph - N/A Snow Light Snow
5:53 AM 3.2 °F -6.2 °F -0.4 °F 85% 30.15 in 7.0 mi North 4.6 mph - N/A Snow Light Snow
6:13 AM 3.2 °F - -2.2 °F 78% 30.16 in 10.0 mi Calm Calm - N/A Snow Light Snow
6:34 AM 1.4 °F - -2.2 °F 85% 30.16 in 10.0 mi Calm Calm - N/A   Overcast
6:53 AM 1.4 °F - -2.2 °F 85% 30.17 in 10.0 mi Calm Calm - N/A   Scattered Clouds
7:13 AM -0.4 °F - -4.0 °F 85% 30.19 in 10.0 mi Calm Calm - N/A   Clear
7:33 AM 1.4 °F -8.3 °F -2.2 °F 85% 30.20 in 10.0 mi ESE 4.6 mph - N/A   Scattered Clouds
7:53 AM 1.4 °F - -2.2 °F 85% 30.20 in 10.0 mi Calm Calm - N/A Snow Light Snow
8:13 AM 3.2 °F - -0.4 °F 85% 30.20 in 1.5 mi Calm Calm - N/A Snow Light Snow
8:33 AM 5.0 °F - -0.4 °F 78% 30.19 in 1.5 mi Calm Calm - N/A Snow Light Snow
8:53 AM 6.8 °F - -0.4 °F 72% 30.19 in 1.5 mi Calm Calm - N/A Snow Light Snow
9:14 AM 6.8 °F -2.0 °F -0.4 °F 72% 30.18 in 2.0 mi SE 4.6 mph - N/A Snow Light Snow
9:33 AM 6.8 °F -2.0 °F 1.4 °F 79% 30.17 in 2.5 mi SSE 4.6 mph - N/A Snow Light Snow
9:53 AM 8.6 °F -2.6 °F 1.4 °F 73% 30.16 in 2.0 mi East 6.9 mph - N/A Snow Light Snow
10:13 AM 8.6 °F -5.5 °F 1.4 °F 73% 30.14 in 7.0 mi East 10.4 mph - N/A Snow Light Snow
10:33 AM 10.4 °F -4.1 °F 3.2 °F 73% 30.13 in 10.0 mi ESE 11.5 mph - N/A   Clear
10:53 AM 10.4 °F -3.3 °F 3.2 °F 73% 30.13 in 10.0 mi ESE 10.4 mph - N/A   Clear
11:13 AM 12.2 °F -2.5 °F 6.8 °F 79% 30.12 in 10.0 mi SE 12.7 mph - N/A   Clear
11:33 AM 12.2 °F -2.5 °F 6.8 °F 79% 30.11 in 10.0 mi SE 12.7 mph 18.4 mph N/A   Clear
11:53 AM 14.0 °F -1.4 °F 8.6 °F 79% 30.09 in 10.0 mi SE 15.0 mph 23.0 mph N/A   Clear
12:14 PM 15.8 °F 0.3 °F 8.6 °F 73% 30.09 in 10.0 mi SE 16.1 mph 19.6 mph N/A   Clear
12:34 PM 15.8 °F 0.3 °F 10.4 °F 79% 30.06 in 10.0 mi SSE 16.1 mph 21.9 mph N/A   Scattered Clouds
12:53 PM 17.6 °F 2.2 °F 10.4 °F 73% 30.05 in 10.0 mi SE 17.3 mph 25.3 mph N/A   Mostly Cloudy
1:13 PM 17.6 °F 0.9 °F 10.4 °F 73% 30.03 in 7.0 mi SE 20.7 mph - N/A   Overcast
1:33 PM 17.6 °F 1.7 °F 10.4 °F 73% 30.02 in 10.0 mi SSE 18.4 mph 25.3 mph N/A   Overcast
1:53 PM 17.6 °F 1.7 °F 10.4 °F 73% 30.02 in 10.0 mi SE 18.4 mph - N/A   Mostly Cloudy
2:14 PM 17.6 °F 2.2 °F 10.4 °F 73% 30.01 in 10.0 mi SE 17.3 mph 23.0 mph N/A   Mostly Cloudy
2:33 PM 17.6 °F 2.7 °F 10.4 °F 73% 30.00 in 10.0 mi SE 16.1 mph 23.0 mph N/A   Scattered Clouds
2:53 PM 17.6 °F 3.2 °F 12.2 °F 79% 29.99 in 10.0 mi SE 15.0 mph 20.7 mph N/A   Scattered Clouds
3:13 PM 19.4 °F 3.6 °F 10.4 °F 68% 29.98 in 10.0 mi SE 19.6 mph 24.2 mph N/A   Mostly Cloudy
3:33 PM 19.4 °F 5.0 °F 10.4 °F 68% 29.97 in 7.0 mi SE 16.1 mph 26.5 mph N/A   Mostly Cloudy
3:53 PM 19.4 °F 3.2 °F 12.2 °F 74% 29.96 in 7.0 mi SE 20.7 mph 27.6 mph N/A   Mostly Cloudy
4:13 PM 19.4 °F 2.8 °F 12.2 °F 74% 29.95 in 10.0 mi SE 21.9 mph 29.9 mph N/A   Scattered Clouds
4:34 PM 19.4 °F 2.5 °F 12.2 °F 74% 29.94 in 7.0 mi SE 23.0 mph 31.1 mph N/A   Clear
4:53 PM 19.4 °F 4.1 °F 12.2 °F 74% 29.94 in 10.0 mi SE 18.4 mph 28.8 mph N/A   Clear
5:14 PM 19.4 °F 2.1 °F 12.2 °F 74% 29.92 in 10.0 mi SE 24.2 mph 29.9 mph N/A   Clear
5:33 PM 17.6 °F -0.3 °F 12.2 °F 79% 29.92 in 10.0 mi SE 24.2 mph 28.8 mph N/A   Clear
5:54 PM 17.6 °F 0.1 °F 12.2 °F 79% 29.91 in 10.0 mi SE 23.0 mph 29.9 mph N/A   Scattered Clouds
6:13 PM 17.6 °F -0.3 °F 12.2 °F 79% 29.90 in 10.0 mi SE 24.2 mph 33.4 mph N/A   Scattered Clouds
6:33 PM 17.6 °F 0.1 °F 12.2 °F 79% 29.90 in 10.0 mi SE 23.0 mph 29.9 mph N/A   Scattered Clouds
6:53 PM 17.6 °F -0.6 °F 12.2 °F 79% 29.88 in 10.0 mi SE 25.3 mph 31.1 mph N/A   Scattered Clouds
7:13 PM 17.6 °F 2.2 °F 12.2 °F 79% 29.88 in 10.0 mi SE 17.3 mph 31.1 mph N/A   Mostly Cloudy
7:34 PM 17.6 °F 0.5 °F 12.2 °F 79% 29.88 in 10.0 mi SE 21.9 mph 28.8 mph N/A   Mostly Cloudy
7:53 PM 19.4 °F 2.8 °F 14.0 °F 80% 29.85 in 10.0 mi SE 21.9 mph 29.9 mph N/A   Scattered Clouds
8:13 PM 19.4 °F 4.5 °F 14.0 °F 80% 29.87 in 10.0 mi SE 17.3 mph 27.6 mph N/A   Mostly Cloudy
8:33 PM 19.4 °F 5.0 °F 14.0 °F 80% 29.86 in 10.0 mi SE 16.1 mph 23.0 mph N/A   Scattered Clouds
8:54 PM 19.4 °F 4.5 °F 14.0 °F 80% 29.84 in 10.0 mi SE 17.3 mph 24.2 mph N/A   Scattered Clouds
9:13 PM 19.4 °F 5.0 °F 15.8 °F 86% 29.84 in 10.0 mi SE 16.1 mph 23.0 mph N/A   Clear
9:33 PM 19.4 °F 5.0 °F 15.8 °F 86% 29.83 in 10.0 mi SE 16.1 mph 20.7 mph N/A   Scattered Clouds
9:53 PM 19.4 °F 4.5 °F 15.8 °F 86% 29.81 in 10.0 mi SE 17.3 mph 21.9 mph N/A   Scattered Clouds
10:13 PM 19.4 °F 4.5 °F 15.8 °F 86% 29.81 in 10.0 mi SE 17.3 mph 20.7 mph N/A   Scattered Clouds
10:33 PM 19.4 °F 4.5 °F 15.8 °F 86% 29.80 in 10.0 mi SE 17.3 mph 23.0 mph N/A   Scattered Clouds
10:53 PM 19.4 °F 5.5 °F 15.8 °F 86% 29.79 in 10.0 mi SE 15.0 mph 23.0 mph N/A   Clear
11:13 PM 19.4 °F 4.5 °F 15.8 °F 86% 29.78 in 10.0 mi SE 17.3 mph 23.0 mph N/A   Clear
11:33 PM 19.4 °F 5.5 °F 15.8 °F 86% 29.77 in 10.0 mi SE 15.0 mph - N/A   Scattered Clouds
11:53 PM 21.2 °F 7.8 °F 15.8 °F 80% 29.76 in 10.0 mi SE 15.0 mph - N/A   Scattered Clouds